User: anonymous   Login
Location: Unspecified
(0.0000°N, 0.0000°E)
Time: 09:58:35
(UTC+00:00)
Language:

Envisat - Orbit

View from above orbital plane
View from above orbital plane
View from above satellite
View from above satellite

Ground track
Ground track

The orbit data is extracted from the following two-line orbital elements,

1 27386U 02009A   17146.53616342 -.00000011 +00000-0 +99584-5 0  9999
2 27386 098.2330 192.7166 0001153 079.8366 280.2957 14.37895652797965
Epoch (UTC): 26 May 2017 12:52:04
Eccentricity: 0.0001153
inclination: 98.2330°
perigee height: 764 km
apogee height: 766 km
right ascension of ascending node: 192.7166°
argument of perigee: 79.8366°
revolutions per day: 14.37895652
mean anomaly at epoch: 280.2957°
orbit number at epoch: 79796

The dashed part of the orbit path shows where the satellite is in the earth's shadow,  

DLR